Location: Newark
(25.4297°S, 49.2719°W)
Time: 12:43:22
(UTC+00:00)

Vanguard 1 Rocket - Pass Details

Date: 28 November 2019
Orbit: 650 x 4226 km, 34.3° (Epoch: 06 December)

Event Time Altitude Azimuth Distance (km) Brightness Sun altitude
Rises 00:00:24 0° 249° (WSW) 8,439 13.4 -25.4°
Reaches altitude 10° 00:07:43 10° 257° (WSW) 7,187 12.7 -26.6°
Maximum altitude 00:25:48 31° 309° (NW) 4,437 10.8 -29.5°
Enters shadow 00:33:42 21° 349° (N) 4,263 10.4 -30.7°
Drops below altitude 10° 00:37:35 10° 5° (N) 4,618 - -31.2°
Sets 00:41:06 0° 16° (NNE) 5,165 - -31.8°
